Time,TemperatureF,DewpointF,PressureIn,WindDirection,WindDirectionDegrees,WindSpeedMPH,WindSpeedGustMPH,Humidity,HourlyPrecipIn,Conditions,Clouds,dailyrainin,SoftwareType,DateUTC
2013-05-04 00:01:00,41.0,13.0,30.05,SSW,196,0.0,0.0,31,0.00,,,0.00,,2013-05-04 07:01:00,
2013-05-04 00:11:00,41.0,13.0,30.05,SSW,196,0.0,0.0,31,0.00,,,0.00,,2013-05-04 07:11:00,
2013-05-04 00:21:00,41.0,13.0,30.05,SSW,196,0.0,1.0,32,0.00,,,0.00,,2013-05-04 07:21:00,
2013-05-04 00:31:00,40.0,13.0,30.05,SSW,196,0.0,1.0,32,0.00,,,0.00,,2013-05-04 07:31:00,
2013-05-04 00:41:00,40.0,13.0,30.05,SSW,196,0.0,1.0,32,0.00,,,0.00,,2013-05-04 07:41:00,
2013-05-04 00:52:00,39.0,12.0,30.05,SSW,196,0.0,0.0,32,0.00,,,0.00,,2013-05-04 07:52:00,
2013-05-04 01:01:00,39.0,12.0,30.04,SSW,209,0.0,2.0,32,0.00,,,0.00,,2013-05-04 08:01:00,
2013-05-04 01:11:00,39.0,12.0,30.04,SSW,209,0.0,2.0,32,0.00,,,0.00,,2013-05-04 08:11:00,
2013-05-04 01:21:00,39.0,16.0,30.04,SSW,209,0.0,2.0,38,0.00,,,0.00,,2013-05-04 08:21:00,
2013-05-04 01:31:00,39.0,16.0,30.03,SSW,209,0.0,1.0,38,0.00,,,0.00,,2013-05-04 08:31:00,
2013-05-04 01:41:00,39.0,16.0,30.03,SSW,209,0.0,1.0,38,0.00,,,0.00,,2013-05-04 08:41:00,
2013-05-04 01:52:00,38.0,15.0,30.03,SSW,209,0.0,1.0,38,0.00,,,0.00,,2013-05-04 08:52:00,
2013-05-04 02:02:00,37.0,14.0,30.02,SSW,209,0.0,1.0,38,0.00,,,0.00,,2013-05-04 09:02:00,
2013-05-04 02:11:00,37.0,14.0,30.02,SSW,209,0.0,1.0,38,0.00,,,0.00,,2013-05-04 09:11:00,
2013-05-04 02:21:00,37.0,16.0,30.02,SSW,209,0.0,1.0,41,0.00,,,0.00,,2013-05-04 09:21:00,
2013-05-04 02:32:00,37.0,17.0,30.02,SSW,209,0.0,2.0,43,0.00,,,0.00,,2013-05-04 09:32:00,
2013-05-04 02:42:00,37.0,17.0,30.02,SSW,209,0.0,2.0,43,0.00,,,0.00,,2013-05-04 09:42:00,
2013-05-04 02:52:00,37.0,19.0,30.01,SSW,210,0.0,1.0,48,0.00,,,0.00,,2013-05-04 09:52:00,
2013-05-04 03:02:00,37.0,20.0,30.01,SSW,210,0.0,2.0,49,0.00,,,0.00,,2013-05-04 10:02:00,
2013-05-04 04:32:00,36.0,21.0,29.99,SSW,210,0.0,1.0,53,0.00,,,0.00,,2013-05-04 11:32:00,
2013-05-04 04:59:00,36.0,20.0,29.98,SSW,210,0.0,1.0,52,0.00,,,0.00,,2013-05-04 11:59:00,
2013-05-04 05:23:00,34.0,19.0,29.98,SSW,210,0.0,0.0,53,0.00,,,0.00,,2013-05-04 12:23:00,
2013-05-04 05:33:00,35.0,18.0,29.98,SSW,210,1.0,2.0,49,0.00,,,0.00,,2013-05-04 12:33:00,
2013-05-04 05:51:00,35.0,18.0,29.98,SSW,210,0.0,0.0,50,0.00,,,0.00,,2013-05-04 12:51:00,
2013-05-04 06:01:00,34.0,17.0,29.98,SSW,210,0.0,1.0,50,0.00,,,0.00,,2013-05-04 13:01:00,
2013-05-04 06:32:00,35.0,20.0,29.97,SSW,210,0.0,2.0,54,0.00,,,0.00,,2013-05-04 13:32:00,
2013-05-04 06:52:00,35.0,20.0,29.98,SSW,210,0.0,2.0,54,0.00,,,0.00,,2013-05-04 13:52:00,
2013-05-04 07:02:00,36.0,21.0,29.98,SSW,210,1.0,2.0,54,0.00,,,0.00,,2013-05-04 14:02:00,
2013-05-04 07:21:00,38.0,23.0,29.98,SSW,210,1.0,2.0,55,0.00,,,0.00,,2013-05-04 14:21:00,
2013-05-04 07:32:00,39.0,23.0,29.98,SSW,212,0.0,2.0,53,0.00,,,0.00,,2013-05-04 14:32:00,
2013-05-04 07:52:00,43.0,27.0,29.98,SSW,212,0.0,0.0,53,0.00,,,0.00,,2013-05-04 14:52:00,
2013-05-04 08:01:00,46.0,30.0,29.98,SW,219,0.0,2.0,53,0.00,,,0.00,,2013-05-04 15:01:00,
2013-05-04 08:21:00,48.0,32.0,29.97,SW,217,0.0,2.0,53,0.00,,,0.00,,2013-05-04 15:21:00,
2013-05-04 08:33:00,48.0,32.0,29.97,SW,217,0.0,0.0,53,0.00,,,0.00,,2013-05-04 15:33:00,
2013-05-04 08:52:00,54.0,14.0,29.97,SSW,206,1.0,3.0,20,0.00,,,0.00,,2013-05-04 15:52:00,
2013-05-04 09:03:00,56.0,13.0,29.97,SW,226,2.0,6.0,18,0.00,,,0.00,,2013-05-04 16:03:00,
2013-05-04 09:12:00,56.0,13.0,29.97,SW,226,2.0,6.0,18,0.00,,,0.00,,2013-05-04 16:12:00,
2013-05-04 09:22:00,59.0,13.0,29.96,South,182,0.0,5.0,16,0.00,,,0.00,,2013-05-04 16:22:00,
2013-05-04 09:32:00,60.0,11.0,29.96,South,176,0.0,4.0,14,0.00,,,0.00,,2013-05-04 16:32:00,
2013-05-04 09:42:00,60.0,11.0,29.96,South,176,0.0,4.0,14,0.00,,,0.00,,2013-05-04 16:42:00,
2013-05-04 09:52:00,60.0,11.0,29.96,SSW,212,1.0,6.0,14,0.00,,,0.00,,2013-05-04 16:52:00,
2013-05-04 10:02:00,61.0,11.0,29.96,SE,143,0.0,1.0,14,0.00,,,0.00,,2013-05-04 17:02:00,
2013-05-04 10:12:00,61.0,11.0,29.96,SE,143,0.0,1.0,14,0.00,,,0.00,,2013-05-04 17:12:00,
2013-05-04 10:22:00,62.0,9.0,29.96,SSW,206,2.0,9.0,12,0.00,,,0.00,,2013-05-04 17:22:00,
2013-05-04 10:32:00,62.0,9.0,29.97,SW,216,3.0,10.0,12,0.00,,,0.00,,2013-05-04 17:32:00,
2013-05-04 10:42:00,62.0,9.0,29.97,SW,216,3.0,10.0,12,0.00,,,0.00,,2013-05-04 17:42:00,
2013-05-04 10:52:00,64.0,10.0,29.96,WSW,256,2.0,5.0,12,0.00,,,0.00,,2013-05-04 17:52:00,
2013-05-04 11:01:00,64.0,8.0,29.96,SSW,199,2.0,10.0,11,0.00,,,0.00,,2013-05-04 18:01:00,
2013-05-04 11:12:00,64.0,8.0,29.96,SSW,199,2.0,10.0,11,0.00,,,0.00,,2013-05-04 18:12:00,
2013-05-04 11:21:00,65.0,9.0,29.96,SW,227,0.0,0.0,11,0.00,,,0.00,,2013-05-04 18:21:00,
2013-05-04 11:32:00,65.0,9.0,29.96,SSE,164,1.0,5.0,11,0.00,,,0.00,,2013-05-04 18:32:00,
2013-05-04 11:42:00,65.0,9.0,29.96,SSE,164,1.0,5.0,11,0.00,,,0.00,,2013-05-04 18:42:00,
2013-05-04 11:52:00,65.0,9.0,29.96,NNW,330,1.0,6.0,11,0.00,,,0.00,,2013-05-04 18:52:00,
2013-05-04 12:01:00,65.0,13.0,29.95,SW,233,1.0,7.0,13,0.00,,,0.00,,2013-05-04 19:01:00,
2013-05-04 12:11:00,65.0,13.0,29.95,SW,233,1.0,7.0,13,0.00,,,0.00,,2013-05-04 19:11:00,
2013-05-04 12:21:00,65.0,9.0,29.95,WSW,253,1.0,9.0,11,0.00,,,0.00,,2013-05-04 19:21:00,
2013-05-04 12:31:00,65.0,9.0,29.95,WSW,251,2.0,2.0,11,0.00,,,0.00,,2013-05-04 19:31:00,
2013-05-04 12:41:00,65.0,9.0,29.95,WSW,251,2.0,2.0,11,0.00,,,0.00,,2013-05-04 19:41:00,
2013-05-04 12:52:00,64.0,12.0,29.95,South,186,3.0,13.0,13,0.00,,,0.00,,2013-05-04 19:52:00,
2013-05-04 13:01:00,66.0,10.0,29.94,SSW,195,2.0,13.0,11,0.00,,,0.00,,2013-05-04 20:01:00,
2013-05-04 13:11:00,66.0,10.0,29.94,SSW,195,2.0,13.0,11,0.00,,,0.00,,2013-05-04 20:11:00,
2013-05-04 13:21:00,66.0,10.0,29.94,WSW,247,2.0,9.0,11,0.00,,,0.00,,2013-05-04 20:21:00,
2013-05-04 13:31:00,66.0,12.0,29.93,SSW,209,3.0,8.0,12,0.00,,,0.00,,2013-05-04 20:31:00,
2013-05-04 13:41:00,66.0,12.0,29.93,SSW,209,3.0,8.0,12,0.00,,,0.00,,2013-05-04 20:41:00,
2013-05-04 13:52:00,66.0,14.0,29.93,SW,219,2.0,9.0,13,0.00,,,0.00,,2013-05-04 20:52:00,
2013-05-04 14:01:00,66.0,10.0,29.93,SW,230,2.0,11.0,11,0.00,,,0.00,,2013-05-04 21:01:00,
2013-05-04 14:11:00,66.0,10.0,29.93,SW,230,2.0,11.0,11,0.00,,,0.00,,2013-05-04 21:11:00,
2013-05-04 14:21:00,67.0,11.0,29.93,SW,220,4.0,9.0,11,0.00,,,0.00,,2013-05-04 21:21:00,
2013-05-04 14:32:00,65.0,9.0,29.92,SE,133,5.0,12.0,11,0.00,,,0.00,,2013-05-04 21:32:00,
2013-05-04 14:43:00,65.0,9.0,29.92,SE,133,5.0,12.0,11,0.00,,,0.00,,2013-05-04 21:43:00,
2013-05-04 14:53:00,66.0,12.0,29.92,SW,222,4.0,12.0,12,0.00,,,0.00,,2013-05-04 21:53:00,
2013-05-04 15:02:00,64.0,10.0,29.92,West,267,6.0,15.0,12,0.00,,,0.00,,2013-05-04 22:02:00,
2013-05-04 15:12:00,64.0,10.0,29.92,West,267,6.0,15.0,12,0.00,,,0.00,,2013-05-04 22:12:00,
2013-05-04 15:22:00,64.0,12.0,29.91,SW,215,7.0,11.0,13,0.00,,,0.00,,2013-05-04 22:22:00,
2013-05-04 15:32:00,63.0,11.0,29.91,South,186,0.0,11.0,13,0.00,,,0.00,,2013-05-04 22:32:00,
2013-05-04 15:42:00,63.0,11.0,29.91,South,186,0.0,11.0,13,0.00,,,0.00,,2013-05-04 22:42:00,
2013-05-04 15:52:00,63.0,11.0,29.91,SW,227,6.0,17.0,13,0.00,,,0.00,,2013-05-04 22:52:00,
2013-05-04 16:02:00,62.0,11.0,29.90,WSW,246,7.0,19.0,13,0.00,,,0.00,,2013-05-04 23:02:00,
2013-05-04 16:11:00,62.0,11.0,29.90,WSW,246,7.0,19.0,13,0.00,,,0.00,,2013-05-04 23:11:00,
2013-05-04 16:21:00,61.0,18.0,29.90,SE,140,6.0,17.0,19,0.00,,,0.00,,2013-05-04 23:21:00,
2013-05-04 16:32:00,61.0,21.0,29.90,South,191,6.0,17.0,21,0.00,,,0.00,,2013-05-04 23:32:00,
2013-05-04 16:42:00,61.0,21.0,29.90,South,191,6.0,17.0,21,0.00,,,0.00,,2013-05-04 23:42:00,
2013-05-04 16:52:00,59.0,19.0,29.91,SSW,195,0.0,11.0,21,0.00,,,0.00,,2013-05-04 23:52:00,
2013-05-04 17:01:00,59.0,19.0,29.90,SE,145,6.0,11.0,21,0.00,,,0.00,,2013-05-05 00:01:00,
2013-05-04 17:11:00,59.0,19.0,29.90,SE,145,6.0,11.0,21,0.00,,,0.00,,2013-05-05 00:11:00,
2013-05-04 17:21:00,56.0,30.0,29.91,West,263,7.0,16.0,37,0.00,,,0.00,,2013-05-05 00:21:00,
2013-05-04 17:31:00,56.0,33.0,29.91,WSW,254,7.0,12.0,42,0.00,,,0.00,,2013-05-05 00:31:00,
2013-05-04 17:42:00,56.0,33.0,29.91,WSW,254,7.0,12.0,42,0.00,,,0.00,,2013-05-05 00:42:00,
2013-05-04 17:52:00,55.0,33.0,29.91,SW,226,5.0,15.0,44,0.00,,,0.00,,2013-05-05 00:52:00,
2013-05-04 18:01:00,54.0,33.0,29.91,NNW,328,0.0,8.0,44,0.00,,,0.00,,2013-05-05 01:01:00,
2013-05-04 18:11:00,54.0,33.0,29.91,NNW,328,0.0,8.0,44,0.00,,,0.00,,2013-05-05 01:11:00,
2013-05-04 18:21:00,53.0,31.0,29.91,SSW,205,0.0,11.0,42,0.00,,,0.00,,2013-05-05 01:21:00,
2013-05-04 18:32:00,52.0,30.0,29.91,SSW,193,5.0,12.0,42,0.00,,,0.00,,2013-05-05 01:32:00,
2013-05-04 18:42:00,52.0,30.0,29.91,SSW,193,5.0,12.0,42,0.00,,,0.00,,2013-05-05 01:42:00,
2013-05-04 18:52:00,51.0,29.0,29.90,SSW,199,5.0,10.0,43,0.00,,,0.00,,2013-05-05 01:52:00,
2013-05-04 19:02:00,51.0,29.0,29.91,SSW,206,3.0,12.0,42,0.00,,,0.00,,2013-05-05 02:02:00,
2013-05-04 19:11:00,51.0,29.0,29.91,SSW,206,3.0,12.0,42,0.00,,,0.00,,2013-05-05 02:11:00,
2013-05-04 19:21:00,50.0,27.0,29.90,WSW,244,2.0,9.0,41,0.00,,,0.00,,2013-05-05 02:21:00,
2013-05-04 19:31:00,50.0,27.0,29.90,WSW,247,0.0,0.0,41,0.00,,,0.00,,2013-05-05 02:31:00,
2013-05-04 19:42:00,50.0,27.0,29.90,WSW,247,0.0,0.0,41,0.00,,,0.00,,2013-05-05 02:42:00,
2013-05-04 19:52:00,50.0,27.0,29.90,South,181,1.0,9.0,41,0.00,,,0.00,,2013-05-05 02:52:00,
2013-05-04 20:01:00,49.0,25.0,29.90,NNW,343,0.0,1.0,38,0.00,,,0.00,,2013-05-05 03:01:00,
2013-05-04 20:11:00,49.0,25.0,29.90,NNW,343,0.0,1.0,38,0.00,,,0.00,,2013-05-05 03:11:00,
2013-05-04 20:21:00,47.0,27.0,29.91,NE,51,0.0,1.0,45,0.00,,,0.00,,2013-05-05 03:21:00,
2013-05-04 20:32:00,47.0,28.0,29.92,East,97,0.0,5.0,48,0.00,,,0.00,,2013-05-05 03:32:00,
2013-05-04 20:42:00,47.0,28.0,29.92,East,97,0.0,5.0,48,0.00,,,0.00,,2013-05-05 03:42:00,
2013-05-04 20:53:00,47.0,30.0,29.92,SW,230,0.0,6.0,51,0.00,,,0.00,,2013-05-05 03:53:00,
2013-05-04 21:02:00,46.0,29.0,29.92,SSW,213,1.0,6.0,52,0.00,,,0.00,,2013-05-05 04:02:00,
2013-05-04 21:12:00,46.0,29.0,29.92,SSW,213,1.0,6.0,52,0.00,,,0.00,,2013-05-05 04:12:00,
2013-05-04 21:22:00,46.0,29.0,29.92,SW,220,3.0,5.0,52,0.00,,,0.00,,2013-05-05 04:22:00,
2013-05-04 21:32:00,46.0,30.0,29.92,SSW,210,3.0,5.0,53,0.00,,,0.00,,2013-05-05 04:32:00,
2013-05-04 21:43:00,46.0,30.0,29.92,SSW,210,3.0,5.0,53,0.00,,,0.00,,2013-05-05 04:43:00,
2013-05-04 21:52:00,46.0,30.0,29.93,NW,304,3.0,9.0,53,0.00,,,0.00,,2013-05-05 04:52:00,
2013-05-04 22:02:00,46.0,30.0,29.93,WSW,248,2.0,9.0,53,0.00,,,0.00,,2013-05-05 05:02:00,
2013-05-04 22:12:00,46.0,30.0,29.93,WSW,248,2.0,9.0,53,0.00,,,0.00,,2013-05-05 05:12:00,
2013-05-04 22:21:00,46.0,22.0,29.93,NW,320,1.0,7.0,38,0.00,,,0.00,,2013-05-05 05:21:00,
2013-05-04 22:31:00,45.0,21.0,29.93,SW,220,2.0,7.0,38,0.00,,,0.00,,2013-05-05 05:31:00,
2013-05-04 22:42:00,45.0,21.0,29.93,SW,220,2.0,7.0,38,0.00,,,0.00,,2013-05-05 05:42:00,
2013-05-04 22:51:00,45.0,21.0,29.93,SSW,212,4.0,11.0,38,0.00,,,0.00,,2013-05-05 05:51:00,
2013-05-04 23:01:00,45.0,15.0,29.93,SW,223,3.0,10.0,30,0.00,,,0.00,,2013-05-05 06:01:00,
2013-05-04 23:11:00,45.0,15.0,29.93,SW,223,3.0,10.0,30,0.00,,,0.00,,2013-05-05 06:11:00,
2013-05-04 23:21:00,45.0,15.0,29.93,SW,234,3.0,9.0,30,0.00,,,0.00,,2013-05-05 06:21:00,
2013-05-04 23:31:00,45.0,15.0,29.92,SW,223,0.0,5.0,30,0.00,,,0.00,,2013-05-05 06:31:00,
2013-05-04 23:42:00,45.0,15.0,29.92,SW,223,0.0,5.0,30,0.00,,,0.00,,2013-05-05 06:42:00,
2013-05-04 23:51:00,45.0,15.0,29.92,SW,232,2.0,9.0,30,0.00,,,0.00,,2013-05-05 06:51:00,